Lid_Strength_Index
6 6 6 6 6 6 6 6 5 5 4 5 5 4 4 4 3 2 2 2 2 1 1 1 1 1 1 1 1 1 1 1
8 7 6 5 5 5 5 5 5 5 4 4 5 4 4 4 3 2 1 1 1 1 1 1 1 1 1 1 1 1 1 1
8 8 7 5 5 5 5 5 5 5 5 4 4 4 4 3 3 2 2 1 1 1 1 1 1 1 1 1 1 1 1 1
8 7 7 6 6 6 5 5 5 5 5 6 5 5 4 4 3 2 1 1 1 1 1 1 1 1 3 4 2 1 1 1
7 7 7 7 6 6 6 5 4 5 5 5 4 4 4 3 3 3 3 3 2 2 2 1 1 1 4 5 4 1 1 1
7 7 7 6 6 7 6 6 6 5 6 5 4 4 4 4 4 4 3 3 3 3 3 2 2 1 4 5 5 1 1 1
7 6 5 5 5 5 6 6 5 6 6 6 5 5 4 4 4 4 4 4 4 4 3 2 2 2 5 6 5 1 1 1
6 5 5 5 5 5 6 6 6 6 5 5 5 5 5 4 4 4 4 4 4 3 3 3 3 2 5 6 5 1 2 2
8 7 7 6 5 5 6 6 7 6 5 5 5 5 5 5 4 4 4 4 4 4 3 3 3 2 2 6 6 2 2 2
9 9 9 9 8 7 7 7 6 5 5 5 5 5 5 4 4 4 4 4 4 4 4 4 3 2 5 5 7 7 4 2
9 9 9 9 8 8 9 7 6 6 6 6 5 5 4 4 4 4 4 4 4 4 4 4 3 1 1 6 7 7 8 6
10 10 11 11 10 9 9 8 8 8 7 7 6 5 5 4 4 4 4 4 4 3 3 3 3 2 2 1 1 3 7 5
10 10 11 12 11 11 10 9 9 9 9 8 8 6 6 5 4 4 4 3 3 3 3 3 3 3 2 2 2 2 1 2
9 9 9 9 9 10 10 10 9 9 10 9 8 7 6 5 4 4 7 6 6 7 6 3 2 5 6 8 9 10 10 10
10 9 8 10 11 9 10 10 10 9 9 9 8 8 7 5 5 5 5 5 8 8 8 9 9 7 9 9 10 11 10 10
10 9 8 9 10 11 10 9 9 9 9 9 7 6 5 4 4 3 3 4 4 4 7 7 9 9 10 10 10 9 3 7
11 10 10 9 9 9 8 8 9 9 8 7 6 5 4 4 3 3 4 4 4 4 4 8 8 10 10 11 10 3 3 3
13 12 12 11 9 9 8 7 7 7 7 8 7 5 5 4 4 4 4 4 4 4 3 3 4 7 6 5 5 2 2 3
13 12 13 12 10 8 9 8 8 7 5 5 7 4 4 4 4 5 5 4 3 3 3 4 9 3 3 3 3 2 2 3
14 14 14 13 12 11 9 8 7 6 6 5 4 4 4 4 3 4 3 3 3 3 3 4 13 6 4 4 2 2 3 3